Starlink 30880

operational
NORAD ID: 58232 Int'l Des: 2023-171 Owner: SPXS Country: US Constellation: starlink
LEOCIRCULAR

Starlink 30880について

説明を読み込み中...

リアルタイム位置

3D地球を読み込み中...

次回通過

高度履歴

Altitude vs Time

uPlot chart will show altitude changes over time

軌道要素

1 58232U 23171C 25304.58818757 -.00000211 00000-0 -57762-6 0 9996
2 58232 43.0046 267.6426 0001272 267.4108 92.6588 15.02534325110305
Epoch: Oct 31, 2025 • Age: 20 hours

現在のステータス

高度 565.6 km
速度 7.58 km/s
衛星直下点 -27.49°S, 77.88°W
打ち上げ日 Nov 8, 2023
運用期間 1.9 years
タイプ internet

技術仕様

分類 Payload
質量 730.00 kg
乾燥質量 700.00 kg
総質量 730.00 kg
長さ 0.30 m
直径 4.10 m
スパン 29.00 m
形状 Box + pan
製造者 SPXS
バスタイプ Starlink V2M
フェーズステータス In Orbit
所有者/国 SPXS/US

大規模コンステレーション

Loading constellations...